Content
SEND FEEDBACK

Daily
Averages
Monthly
Summary
United States of America

EVADALE, TEXAS


Home > North America > United States > Texas
Elevation: 4 feet     Latitude: 30 20N     Longitude: 094 05W

WEATHER
 
SELECT A DAY
Number of Records: 75,701;   Date Range: 3/9/11 - 10/19/14
 
SHARE

PRINT THIS DATA

[ ← Previous Day ]
WEATHER ALMANAC - APRIL 1, 2013
[ Next Day → ]
[ °C ]   °F
Weather ElementAverageHighLow
Temperature67.7 °F81 °F (5:15 pm)57.2 °F (3:55 am)
Dewpoint61.7 °F64.2 °F (9:15 am)57.2 °F (3:55 am)
Humidity83.4 %100 % (12:35 am)53 % (5:15 pm)
Barometer30.02 in30.10 in (11:15 am)29.97 in (2:15 am)
Wind Speed3.1 mph8.1 mph (6:55 pm)
Weather ElementAverage
Visibility7.8 mi
Wind DirectionENE (64.5 °)

Weather ElementTotal
Precipitation---
Cooling Degree Days4.1 (Base 65)
Growing Degree Days19.1 (Base 50)
Averaged from 66 records on April 1, 2013
WEATHER CONDITIONS BREAKOUT
WIND DIRECTION BREAKOUT
WEATHER BY HOUR - APRIL 1, 2013
[ °C ]   °F
Local TimeTemperatureDewpointHumidityBarometerVisibilityWind DirectionWind SpeedGust SpeedPrecipitationEventsConditions
12:35 AM61.2 °F61.2 °F100 %29.99 in2.0 miNorthOvercast
12:55 AM61.0 °F61.0 °F100 %29.99 in3.0 miNNE (20°)3.5 mphOvercast
1:15 AM60.8 °F60.8 °F100 %29.98 in2.5 miNNE (20°)6.9 mphOvercast
1:35 AM60.4 °F60.4 °F100 %29.98 in3.0 miNNE (30°)3.5 mphOvercast
1:55 AM60.8 °F60.8 °F100 %29.98 in2.5 miNNE (30°)5.8 mphOvercast
2:15 AM60.8 °F60.8 °F100 %29.97 in1.5 miNE (40°)5.8 mphOvercast
2:35 AM60.4 °F60.4 °F100 %29.97 in0.8 miNE (40°)4.6 mphOvercast
2:55 AM59.9 °F59.9 °F100 %29.97 in3.0 miCalmMostly Cloudy
3:15 AM59.5 °F59.5 °F100 %29.97 in4.0 miCalmClear
3:35 AM58.8 °F58.8 °F100 %29.98 in1.2 miCalmMist
3:55 AM57.2 °F57.2 °F100 %29.98 in2.0 miCalmOvercast
4:15 AM57.7 °F57.7 °F100 %29.99 in4.0 miCalmOvercast
4:35 AM59.4 °F59.4 °F100 %29.99 in5.0 miCalmOvercast
4:55 AM60.1 °F60.1 °F100 %30.00 in7.0 miNNE (20°)3.5 mphOvercast
5:15 AM60.4 °F60.4 °F100 %30.00 in7.0 miCalmOvercast
5:35 AM60.8 °F60.8 °F100 %30.01 in7.0 miCalmOvercast
5:55 AM60.8 °F60.8 °F100 %30.02 in7.0 miCalmOvercast
6:15 AM59.9 °F59.9 °F100 %30.02 in1.2 miCalmOvercast
6:35 AM59.0 °F59.0 °F100 %30.04 in4.0 miWNW (300°)3.5 mphOvercast
6:55 AM60.4 °F60.4 °F100 %30.05 in7.0 miCalmOvercast
7:15 AM60.6 °F60.6 °F100 %30.05 in5.0 miCalmOvercast
7:35 AM60.8 °F60.8 °F100 %30.05 in7.0 miCalmOvercast
8:15 AM61.7 °F61.7 °F100 %30.07 in10.0 miCalmOvercast
8:35 AM62.4 °F62.4 °F100 %30.08 in7.0 miCalmOvercast
8:55 AM63.5 °F63.5 °F100 %30.08 in7.0 miCalmOvercast
9:15 AM64.6 °F64.2 °F99 %30.08 in10.0 miCalmOvercast
9:35 AM67.6 °F63.1 °F85 %30.09 in10.0 miCalmMostly Cloudy
9:55 AM67.5 °F63.5 °F87 %30.09 in10.0 miEast (100°)4.6 mphOvercast
10:15 AM68.0 °F63.7 °F86 %30.09 in10.0 miESE (110°)5.8 mphOvercast
10:35 AM68.7 °F63.5 °F83 %30.09 in10.0 miESE (110°)6.9 mphOvercast
11:15 AM69.8 °F62.1 °F76 %30.10 in10.0 miEast (100°)5.8 mphOvercast
11:35 AM71.1 °F61.9 °F73 %30.10 in10.0 miNorthOvercast
11:55 AM72.3 °F62.2 °F70 %30.09 in10.0 miNorthOvercast
12:15 PM75.2 °F62.2 °F64 %30.08 in10.0 miESE (110°)6.9 mphMostly Cloudy
12:35 PM75.9 °F61.9 °F62 %30.08 in10.0 miCalmScattered Clouds
1:15 PM77.4 °F61.9 °F59 %30.07 in10.0 miENE (60°)4.6 mphMostly Cloudy
1:35 PM77.9 °F61.3 °F57 %30.05 in10.0 miESE (120°)4.6 mphMostly Cloudy
1:55 PM77.5 °F62.4 °F59 %30.05 in10.0 miEast (100°)3.5 mphMostly Cloudy
2:15 PM76.3 °F61.7 °F60 %30.04 in10.0 miCalmScattered Clouds
2:35 PM77.2 °F62.8 °F61 %30.03 in10.0 miSSE (150°)5.8 mphMostly Cloudy
2:55 PM78.6 °F62.8 °F58 %30.02 in10.0 miESE (110°)3.5 mphOvercast
3:15 PM78.6 °F62.2 °F57 %30.01 in10.0 miCalmMostly Cloudy
3:35 PM77.5 °F62.6 °F60 %30.00 in10.0 miNE (50°)4.6 mphMostly Cloudy
3:55 PM79.3 °F61.9 °F55 %30.00 in10.0 miCalmScattered Clouds
4:15 PM78.3 °F62.1 °F57 %29.99 in10.0 miEast (90°)4.6 mphMostly Cloudy
4:35 PM77.9 °F61.5 °F57 %29.99 in10.0 miCalmMostly Cloudy
4:55 PM80.1 °F62.4 °F55 %29.98 in10.0 miESE (110°)4.6 mphScattered Clouds
5:15 PM81.0 °F62.2 °F53 %29.98 in10.0 miSSE (160°)5.8 mphMostly Cloudy
5:35 PM78.1 °F62.1 °F58 %29.98 in10.0 miSE (130°)4.6 mphOvercast
5:55 PM79.2 °F62.1 °F56 %29.98 in10.0 miSE (140°)6.9 mphMostly Cloudy
6:15 PM77.2 °F62.2 °F60 %29.98 in10.0 miSSE (150°)5.8 mphMostly Cloudy
6:35 PM76.5 °F61.9 °F61 %29.98 in10.0 miSSE (150°)4.6 mphScattered Clouds
6:55 PM75.4 °F62.6 °F64 %29.98 in10.0 miSouth (170°)8.1 mphClear
7:15 PM72.5 °F63.1 °F72 %29.98 in10.0 miSouth (170°)6.9 mphClear
7:35 PM70.7 °F63.0 °F76 %29.98 in10.0 miSouth (170°)6.9 mphClear
7:55 PM69.1 °F62.8 °F80 %29.99 in10.0 miSouth (170°)6.9 mphClear
8:15 PM67.8 °F62.1 °F82 %29.99 in10.0 miSouth (170°)5.8 mphClear
8:35 PM66.6 °F62.1 °F85 %29.99 in10.0 miSouth (170°)5.8 mphClear
8:55 PM65.5 °F62.8 °F91 %29.99 in10.0 miSouth (170°)5.8 mphClear
9:15 PM64.9 °F63.0 °F93 %30.00 in10.0 miSouth (170°)5.8 mphClear
9:35 PM64.2 °F63.0 °F96 %30.02 in10.0 miSouth (180°)5.8 mphClear
9:55 PM63.7 °F63.1 °F98 %30.02 in10.0 miSouth (170°)4.6 mphClear
10:15 PM63.3 °F63.0 °F99 %30.02 in10.0 miCalmClear
10:35 PM63.3 °F63.3 °F100 %30.03 in10.0 miCalmClear
10:55 PM62.8 °F62.8 °F100 %30.03 in10.0 miCalmClear
11:35 PM60.3 °F60.3 °F100 %30.03 in5.0 miCalmClear
Hourly data recorded from KBMT, located miles away from Evadale, Texas







STORIES FROM OUR PARTNERS